CW2931 Weather Reports


Display with metric or nautical units.
time (UTC)temp
F
wind
direction
speed
MPH
gust
MPH
rain 1hr
in
rain 24hr
in
rain mn
in
humidity
%
barometer
mb
20260905175104 78 32 0.0 0.0 0.00 0.13 0.04 69 1013.9
20260905174605 78 19 0.0 0.0 0.00 0.13 0.04 70 1013.9
20260905174104 78 14 0.0 0.0 0.00 0.13 0.04 72 1013.9
20260905173604 78 41 0.0 0.0 0.00 0.13 0.04 73 1013.8
20260905172604 77 35 0.0 0.0 0.00 0.13 0.04 75 1013.8
20260905172104 77 5 0.0 0.0 0.00 0.13 0.04 75 1013.8
20260905171104 77 0 0.0 0.0 0.00 0.14 0.04 76 1014.0
20260905170604 77 0 0.0 0.0 0.00 0.14 0.04 78 1014.2
20260905170104 77 114 0.0 0.0 0.01 0.14 0.04 79 1014.3
20260905165604 77 143 0.0 0.0 0.01 0.14 0.04 80 1014.3
20260905165104 76 87 0.0 0.0 0.01 0.14 0.04 82 1014.3
20260905164604 76 75 0.0 0.0 0.01 0.14 0.04 83 1014.3
20260905163604 75 110 0.0 0.0 0.01 0.15 0.04 87 1014.1
20260905163104 75 19 0.0 0.0 0.01 0.15 0.04 89 1014.1
20260905162104 74 39 0.0 0.0 0.01 0.15 0.04 91 1014.1
20260905161604 74 8 0.0 0.0 0.01 0.15 0.04 92 1014.0
20260905161106 74 349 0.0 0.0 0.01 0.15 0.04 93 1014.0
20260905160604 73 119 0.0 0.0 0.01 0.15 0.04 93 1014.1
20260905160104 73 24 0.0 0.0 0.00 0.14 0.03 94 1014.1
20260905155604 73 18 0.0 0.0 0.00 0.15 0.03 94 1013.9
20260905154604 73 347 0.0 0.0 0.00 0.15 0.03 94 1013.9
20260905154104 72 196 0.0 0.0 0.00 0.15 0.03 94 1013.9
20260905153604 72 130 0.0 0.0 0.00 0.15 0.03 94 1013.9
20260905153104 72 36 0.0 0.0 0.00 0.15 0.03 94 1014.0
20260905152604 72 36 0.0 0.0 0.00 0.16 0.03 94 1014.0
20260905152104 72 35 0.0 0.0 0.00 0.16 0.03 94 1014.0
20260905151604 72 32 0.0 0.0 0.00 0.16 0.03 94 1013.9
20260905150604 72 27 0.0 0.0 0.00 0.16 0.03 94 1013.8
20260905150104 72 27 0.0 0.0 0.00 0.16 0.03 94 1013.8
20260905145604 71 26 0.0 0.0 0.00 0.16 0.03 94 1013.8
20260905145104 71 28 0.0 0.0 0.00 0.16 0.03 94 1013.7
20260905144603 71 26 0.0 0.0 0.00 0.17 0.03 94 1013.5
20260905144104 71 27 0.0 0.0 0.00 0.17 0.03 94 1013.5
20260905143604 71 27 0.0 0.0 0.00 0.17 0.03 94 1013.4
20260905143104 71 120 0.0 0.0 0.00 0.17 0.03 94 1013.4
20260905142604 71 119 0.0 0.0 0.00 0.18 0.03 94 1013.3
20260905142103 71 117 0.0 0.0 0.00 0.18 0.03 94 1013.3
20260905141604 71 122 0.0 0.0 0.00 0.18 0.03 94 1013.3
20260905141103 71 123 0.0 0.0 0.00 0.18 0.03 94 1013.3
20260905140604 70 123 0.0 0.0 0.00 0.18 0.03 94 1013.3
20260905140104 70 128 0.0 0.0 0.00 0.19 0.03 94 1013.3
20260905135604 70 128 0.0 0.0 0.00 0.19 0.03 94 1013.3
20260905135104 70 128 0.0 0.0 0.00 0.19 0.03 94 1013.3
20260905134604 69 128 0.0 0.0 0.00 0.19 0.03 94 1013.3
20260905134104 69 128 0.0 0.0 0.01 0.20 0.03 94 1013.3
20260905133104 69 128 0.0 0.0 0.01 0.20 0.03 94 1013.4
20260905132604 69 128 0.0 0.0 0.01 0.20 0.03 94 1013.4
20260905132104 69 128 0.0 0.0 0.01 0.20 0.03 94 1013.4
20260905131603 69 128 0.0 0.0 0.01 0.20 0.03 94 1013.5
20260905130604 69 128 0.0 0.0 0.01 0.21 0.03 93 1013.5
20260905125604 69 128 0.0 0.0 0.01 0.21 0.03 93 1013.5
20260905125104 69 128 0.0 0.0 0.01 0.21 0.03 94 1013.5
20260905124603 69 128 0.0 0.0 0.01 0.21 0.03 94 1013.6
20260905124104 68 128 0.0 0.0 0.00 0.21 0.02 93 1013.7
20260905123604 68 128 0.0 0.0 0.00 0.21 0.02 93 1013.5
20260905123104 68 128 0.0 0.0 0.00 0.21 0.02 93 1013.4
20260905122604 68 128 0.0 0.0 0.00 0.21 0.02 93 1013.3
20260905122103 68 128 0.0 0.0 0.00 0.21 0.02 93 1013.3
20260905121604 69 128 0.0 0.0 0.00 0.21 0.02 93 1013.3
20260905121104 69 128 0.0 0.0 0.00 0.21 0.02 93 1013.3
20260905120604 69 128 0.0 0.0 0.00 0.21 0.02 93 1013.4
20260905120104 69 128 0.0 0.0 0.00 0.21 0.02 93 1013.4
20260905115604 69 128 0.0 0.0 0.00 0.21 0.02 93 1013.4
20260905115104 69 128 0.0 0.0 0.00 0.22 0.02 93 1013.4
20260905114603 69 128 0.0 0.0 0.00 0.22 0.02 93 1013.4
20260905114105 69 128 0.0 0.0 0.00 0.22 0.02 93 1013.4
20260905113603 69 128 0.0 0.0 0.00 0.22 0.02 93 1013.4
20260905113104 69 128 0.0 0.0 0.00 0.22 0.02 93 1013.3
20260905112603 69 124 0.0 0.0 0.00 0.22 0.02 93 1013.3
20260905112103 69 127 0.0 0.0 0.00 0.23 0.02 93 1013.2
20260905111104 69 128 0.0 0.0 0.00 0.23 0.02 93 1013.1
20260905110603 69 130 0.0 0.0 0.00 0.23 0.02 93 1013.1
20260905110104 69 130 0.0 0.0 0.00 0.23 0.02 93 1013.0
20260905105604 70 130 0.0 0.0 0.00 0.23 0.02 93 1012.8
20260905105104 70 130 0.0 0.0 0.01 0.23 0.02 93 1012.8
20260905104604 70 130 0.0 0.0 0.01 0.23 0.02 93 1012.8
20260905104104 70 130 0.0 0.0 0.01 0.23 0.02 93 1012.8
20260905103604 70 130 0.0 0.0 0.01 0.23 0.02 93 1012.9
20260905102604 70 130 0.0 0.0 0.01 0.23 0.02 93 1012.8
20260905102103 70 130 0.0 0.0 0.01 0.23 0.02 93 1012.8
20260905101603 70 130 0.0 0.0 0.01 0.23 0.02 93 1012.8
20260905101104 70 130 0.0 0.0 0.01 0.23 0.02 93 1012.7
20260905100604 70 130 0.0 0.0 0.01 0.23 0.02 93 1012.9
20260905100104 70 130 0.0 0.0 0.01 0.23 0.02 93 1012.8
20260905095604 70 130 0.0 0.0 0.01 0.23 0.02 93 1012.8
20260905095104 70 130 0.0 0.0 0.00 0.22 0.01 93 1013.0
20260905094603 70 130 0.0 0.0 0.00 0.22 0.01 93 1013.1
20260905094104 70 130 0.0 0.0 0.00 0.22 0.01 93 1013.0
20260905093604 70 130 0.0 0.0 0.00 0.22 0.01 93 1013.0
20260905093103 71 130 0.0 0.0 0.00 0.22 0.01 93 1012.8
20260905092604 71 130 0.0 0.0 0.00 0.22 0.01 93 1012.7
20260905092103 71 130 0.0 0.0 0.00 0.22 0.01 93 1012.6
20260905091603 71 130 0.0 0.0 0.00 0.22 0.01 93 1012.7
20260905091103 71 130 0.0 0.0 0.00 0.22 0.01 93 1012.9
20260905090604 71 130 0.0 0.0 0.00 0.22 0.01 93 1012.8
20260905090104 71 130 0.0 0.0 0.00 0.22 0.01 93 1012.8
20260905085104 71 130 0.0 0.0 0.00 0.22 0.01 93 1012.7
20260905084603 71 130 0.0 0.0 0.00 0.22 0.01 93 1012.7
20260905084103 71 130 0.0 0.0 0.00 0.22 0.01 93 1012.4
20260905083603 71 130 0.0 0.0 0.00 0.22 0.01 93 1012.1
20260905083104 71 130 0.0 0.0 0.00 0.22 0.01 93 1011.9
20260905082103 71 130 0.0 0.0 0.00 0.22 0.01 93 1011.8
20260905081603 71 130 0.0 0.0 0.00 0.22 0.01 93 1011.9
20260905081103 71 130 0.0 0.0 0.00 0.22 0.01 93 1012.1
20260905080603 71 130 0.0 0.0 0.00 0.22 0.01 93 1012.2
20260905080104 71 130 0.0 0.0 0.00 0.22 0.01 93 1012.3
20260905075604 71 130 0.0 0.0 0.00 0.22 0.01 93 1012.3
20260905074604 72 130 0.0 0.0 0.00 0.22 0.01 93 1012.2
20260905074103 72 130 0.0 0.0 0.00 0.22 0.01 93 1012.3
20260905073603 72 130 0.0 0.0 0.00 0.22 0.01 93 1012.4
20260905073103 72 130 0.0 0.0 0.00 0.22 0.01 93 1012.5
20260905071104 72 130 0.0 0.0 0.00 0.22 0.01 93 1012.2
20260905070604 72 130 0.0 0.0 0.00 0.22 0.01 93 1012.2
20260905070103 72 130 0.0 0.0 0.01 0.22 0.01 93 1012.2
20260905065604 72 130 0.0 0.0 0.01 0.22 0.01 93 1012.2
20260905065103 72 130 0.0 0.0 0.01 0.22 0.01 93 1012.2
20260905064603 72 130 0.0 0.0 0.01 0.22 0.01 93 1012.2
20260905064104 72 130 0.0 0.0 0.01 0.22 0.01 93 1012.2
20260905063105 72 241 0.0 0.0 0.01 0.22 0.01 92 1012.2
20260905062605 72 241 0.0 0.0 0.01 0.22 0.01 92 1012.2
20260905062105 72 241 0.0 0.0 0.01 0.22 0.01 92 1012.2
20260905061604 73 241 0.0 0.0 0.01 0.22 0.01 92 1012.2
20260905060105 73 241 0.0 0.0 0.00 0.21 0.00 92 1012.2
20260905054604 73 242 0.0 0.0 0.00 0.22 0.00 92 1012.4
20260905054104 73 242 0.0 0.0 0.00 0.22 0.00 92 1012.6
20260905053105 73 238 0.0 0.0 0.00 0.22 0.00 92 1012.7
20260905052605 73 238 0.0 0.0 0.00 0.22 0.00 92 1012.6
20260905052104 73 238 0.0 0.0 0.00 0.22 0.00 92 1012.7
20260905051105 73 238 0.0 0.0 0.00 0.22 0.00 92 1012.7
20260905050604 73 238 0.0 0.0 0.00 0.22 0.00 92 1012.5
20260905050104 73 238 0.0 0.0 0.00 0.22 0.00 92 1012.7
20260905045604 73 238 0.0 0.0 0.01 0.22 0.00 92 1012.7
20260905045105 73 238 0.0 0.0 0.01 0.22 0.00 92 1012.7
20260905044604 73 238 0.0 0.0 0.01 0.22 0.00 91 1012.8
20260905043604 73 238 0.0 0.0 0.01 0.23 0.00 91 1012.9
20260905043104 73 238 0.0 0.0 0.01 0.23 0.00 91 1013.0
20260905042606 74 238 0.0 0.0 0.01 0.23 0.00 91 1013.1
20260905041604 73 238 0.0 0.0 0.01 0.23 0.00 91 1012.9
20260905041104 73 238 0.0 0.0 0.01 0.23 0.00 91 1012.9
20260905040604 74 238 0.0 0.0 0.01 0.23 0.00 91 1012.9
20260905040105 74 238 0.0 0.0 0.01 0.23 0.00 91 1013.0
20260905035604 74 238 0.0 0.0 0.00 0.22 0.22 91 1013.0
20260905035104 74 238 0.0 0.0 0.00 0.23 0.22 91 1013.1
20260905034604 74 238 0.0 0.0 0.00 0.23 0.22 91 1013.2
20260905034104 74 238 0.0 0.0 0.00 0.23 0.22 91 1013.2
20260905033604 74 238 0.0 0.0 0.00 0.23 0.22 91 1013.3
20260905033105 74 238 0.0 0.0 0.00 0.23 0.22 91 1013.3
20260905032605 74 238 0.0 0.0 0.00 0.23 0.22 91 1013.3
20260905032104 74 238 0.0 0.0 0.00 0.23 0.22 91 1013.4
20260905031104 74 238 0.0 0.0 0.00 0.24 0.22 91 1013.4
20260905030604 74 238 0.0 0.0 0.00 0.24 0.22 91 1013.4
20260905030104 73 238 0.0 0.0 0.00 0.24 0.22 90 1013.6
20260905025604 73 238 0.0 0.0 0.00 0.24 0.22 90 1013.5
20260905025105 73 238 0.0 0.0 0.00 0.24 0.22 90 1013.5
20260905024605 73 238 0.0 0.0 0.00 0.24 0.22 90 1013.4
20260905024104 73 238 0.0 0.0 0.00 0.24 0.22 90 1013.4
20260905023105 74 238 0.0 0.0 0.00 0.25 0.22 90 1013.3
20260905022104 74 238 0.0 0.0 0.00 0.25 0.22 90 1013.3
20260905021605 74 238 0.0 0.0 0.00 0.25 0.22 90 1013.4
20260905020604 74 238 0.0 0.0 0.00 0.26 0.22 90 1013.3
20260905020105 74 238 0.0 0.0 0.01 0.26 0.22 90 1013.3
20260905015604 74 238 0.0 0.0 0.01 0.26 0.22 90 1013.3
20260905015104 74 238 0.0 0.0 0.01 0.26 0.22 89 1013.3
20260905014604 74 238 0.0 0.0 0.01 0.27 0.22 89 1013.3
20260905014105 74 238 0.0 0.0 0.01 0.27 0.22 89 1013.3
20260905012605 74 238 0.0 0.0 0.01 0.28 0.22 89 1013.4
20260905011604 74 239 0.0 0.0 0.01 0.28 0.22 89 1013.3
20260905011105 74 239 0.0 0.0 0.01 0.28 0.22 89 1013.3
20260905010605 74 239 0.0 0.0 0.01 0.28 0.22 89 1013.3
20260905005604 75 239 0.0 0.0 0.00 0.28 0.21 89 1013.3
20260905005104 75 239 0.0 0.0 0.00 0.28 0.21 89 1013.3
20260905004606 75 239 0.0 0.0 0.01 0.28 0.21 89 1013.2
20260905003104 75 239 0.0 0.0 0.01 0.29 0.21 89 1013.2
20260905002604 75 239 0.0 0.0 0.01 0.29 0.21 89 1013.2
20260905002104 75 239 0.0 0.0 0.01 0.30 0.21 89 1013.3
20260905001104 76 239 0.0 0.0 0.01 0.31 0.21 89 1013.2
20260905000604 76 239 0.0 0.0 0.01 0.31 0.21 89 1013.2
20260905000104 76 239 0.0 0.0 0.01 0.31 0.21 89 1013.0
20260904235104 76 239 0.0 0.0 0.01 0.32 0.21 89 1012.9
20260904234604 76 239 0.0 0.0 0.00 0.31 0.20 89 1012.8
20260904234104 76 239 0.0 0.0 0.00 0.32 0.20 90 1012.8
20260904233604 76 239 0.0 0.0 0.00 0.32 0.20 90 1012.9
20260904232105 76 239 0.0 0.0 0.00 0.33 0.20 90 1012.7
20260904231104 76 239 0.0 0.0 0.00 0.34 0.20 90 1012.8
20260904230604 76 239 0.0 0.0 0.00 0.34 0.20 90 1012.7
20260904225604 76 239 0.0 0.0 0.01 0.35 0.20 91 1012.7
20260904225104 76 239 0.0 0.0 0.01 0.36 0.20 90 1012.7
20260904224604 76 239 0.0 0.0 0.01 0.36 0.20 91 1012.6
20260904224104 76 239 0.0 0.0 0.01 0.37 0.20 91 1012.4
20260904223604 76 239 0.0 0.0 0.01 0.37 0.20 91 1012.2
20260904221605 76 239 0.0 0.0 0.01 0.40 0.20 92 1012.4
20260904221105 76 239 0.0 0.0 0.01 0.40 0.20 92 1012.3
20260904220604 76 239 0.0 0.0 0.02 0.41 0.20 92 1012.3
20260904220104 76 240 0.0 0.0 0.02 0.42 0.20 92 1012.3
20260904215604 76 265 0.0 0.0 0.01 0.41 0.19 92 1012.2
20260904215104 76 308 0.0 0.0 0.01 0.42 0.19 93 1012.3
20260904214604 75 308 0.0 0.0 0.01 0.43 0.19 93 1012.3
20260904214104 75 313 0.0 0.0 0.01 0.44 0.19 93 1012.3
20260904213104 75 250 0.0 0.0 0.01 0.47 0.19 93 1012.1
20260904212605 75 250 0.0 0.0 0.01 0.48 0.19 94 1012.0
20260904212104 75 250 0.0 0.0 0.01 0.50 0.19 93 1012.1
20260904211605 75 248 0.0 0.0 0.01 0.52 0.19 94 1012.2
20260904211104 75 260 0.0 0.0 0.01 0.54 0.19 94 1012.2
20260904210604 75 234 0.0 0.0 0.00 0.55 0.18 94 1012.1
20260904210104 75 240 0.0 0.0 0.01 0.57 0.18 94 1012.2
20260904205104 75 258 0.0 0.0 0.01 0.62 0.18 95 1012.0
20260904204604 75 272 0.0 0.0 0.01 0.65 0.18 95 1011.9
20260904204104 74 252 0.0 0.0 0.01 0.68 0.18 95 1011.7
20260904203604 74 249 0.0 0.0 0.01 0.71 0.18 95 1011.7
20260904203104 74 254 0.0 0.0 0.01 0.74 0.18 95 1011.7
20260904202605 74 254 0.0 0.0 0.01 0.77 0.18 95 1011.5
20260904202104 74 251 0.0 0.0 0.02 0.80 0.18 95 1011.6
20260904201604 74 248 0.0 0.0 0.02 0.82 0.18 95 1011.6
20260904201104 74 242 0.0 0.0 0.02 0.84 0.18 95 1011.7
20260904200604 74 242 0.0 0.0 0.02 0.84 0.18 95 1011.7
20260904200104 74 242 0.0 0.0 0.01 0.83 0.17 95 1011.7
20260904195604 74 242 0.0 0.0 0.01 0.83 0.17 96 1011.8
20260904195104 74 242 0.0 0.0 0.01 0.83 0.17 95 1012.1
20260904194604 73 252 0.0 0.0 0.01 0.83 0.17 95 1012.1
20260904194104 74 242 0.0 0.0 0.01 0.83 0.17 95 1012.2
20260904193604 74 226 0.0 0.0 0.01 0.83 0.17 96 1012.2
20260904193104 73 226 0.0 0.0 0.02 0.83 0.17 96 1012.3
20260904192604 73 226 0.0 0.0 0.02 0.83 0.17 96 1012.4
20260904192104 73 226 0.0 0.0 0.01 0.82 0.16 96 1012.5
20260904191604 73 236 0.0 0.0 0.01 0.82 0.16 96 1012.6
20260904190604 73 208 0.0 0.0 0.01 0.82 0.16 96 1012.8
20260904185604 73 184 0.0 0.0 0.02 0.82 0.16 96 1012.7
20260904185104 73 250 0.0 0.0 0.02 0.82 0.16 96 1012.8
20260904184604 73 217 0.0 0.0 0.02 0.82 0.16 96 1012.8
20260904184104 72 192 0.0 0.0 0.02 0.82 0.16 96 1013.0
20260904183604 72 250 0.0 0.0 0.02 0.82 0.16 96 1013.3
20260904183104 72 245 0.0 0.0 0.01 0.81 0.15 96 1013.4
20260904181604 73 243 0.0 0.0 0.02 0.81 0.15 96 1013.7
20260904181104 73 230 0.0 0.0 0.02 0.81 0.15 96 1013.4
20260904180604 73 218 0.0 0.0 0.02 0.81 0.15 96 1013.4
20260904175604 73 226 0.0 0.0 0.01 0.80 0.14 96 1013.8